Hourly Weather Suhotino

Today, 27 January, Wednesday

Time Temperature Precipitation Wind Pressure Humidity
00:00 -4°C° 0.3 mm 8 mps 739 mmHg 97%
01:00 -3°C° 0.8 mm 7 mps 738 mmHg 97%
02:00 -3°C° 0.8 mm 7 mps 738 mmHg 97%
03:00 -2°C° 0 mm 6 mps 737 mmHg 98%
04:00 -2°C° 0.3 mm 6 mps 737 mmHg 98%
05:00 -2°C° 0.3 mm 6 mps 737 mmHg 97%
06:00 -2°C° 0.3 mm 6 mps 737 mmHg 97%
07:00 -2°C° 0 mm 6 mps 737 mmHg 94%
08:00 -3°C° 0 mm 6 mps 737 mmHg 91%
09:00 -3°C° 0 mm 6 mps 737 mmHg 88%
10:00 -4°C° 0 mm 5 mps 738 mmHg 88%
11:00 -4°C° 0 mm 5 mps 738 mmHg 88%
12:00 -4°C° 0 mm 5 mps 738 mmHg 88%
13:00 -3°C° 0 mm 4 mps 738 mmHg 88%
14:00 -3°C° 0 mm 4 mps 738 mmHg 89%
15:00 -1°C° 0 mm 3 mps 738 mmHg 90%
16:00 -1°C° 0.2 mm 3 mps 738 mmHg 93%
17:00 -1°C° 0.2 mm 2 mps 738 mmHg 95%
18:00 -1°C° 0.2 mm 2 mps 737 mmHg 97%
19:00 +1°C° 0.1 mm 1 mps 737 mmHg 97%
20:00 +1°C° 0.1 mm 1 mps 737 mmHg 97%
21:00 +1°C° 0.1 mm 1 mps 737 mmHg 98%
22:00 +1°C° 0.1 mm 1 mps 737 mmHg 98%
23:00 +1°C° 0.1 mm 1 mps 737 mmHg 98%

Tomorrow, 28 January, Thursday

Time Temperature Precipitation Wind Pressure Humidity
00:00 +1°C° 0.1 mm 1 mps 738 mmHg 98%
01:00 -1°C° 0.3 mm 2 mps 737 mmHg 98%
02:00 -1°C° 0.3 mm 3 mps 737 mmHg 98%
03:00 -1°C° 0.3 mm 3 mps 737 mmHg 98%
04:00 -1°C° 0.4 mm 4 mps 737 mmHg 98%
05:00 -1°C° 0.4 mm 4 mps 736 mmHg 99%
06:00 -1°C° 0.4 mm 4 mps 736 mmHg 99%
07:00 -1°C° 0.3 mm 4 mps 736 mmHg 98%
08:00 -1°C° 0.3 mm 5 mps 736 mmHg 96%
09:00 -2°C° 0.3 mm 5 mps 736 mmHg 95%
10:00 -2°C° 0 mm 5 mps 736 mmHg 95%
11:00 -2°C° 0 mm 5 mps 736 mmHg 94%
12:00 -2°C° 0 mm 5 mps 736 mmHg 94%
13:00 -2°C° 0 mm 5 mps 736 mmHg 94%
14:00 -2°C° 0 mm 5 mps 735 mmHg 94%
15:00 -2°C° 0 mm 5 mps 735 mmHg 94%
16:00 -2°C° 0 mm 5 mps 735 mmHg 94%
17:00 -2°C° 0 mm 5 mps 736 mmHg 94%
18:00 -2°C° 0 mm 5 mps 736 mmHg 94%
19:00 -4°C° 0 mm 5 mps 736 mmHg 94%
20:00 -4°C° 0 mm 5 mps 736 mmHg 94%
21:00 -4°C° 0 mm 5 mps 736 mmHg 94%
22:00 -4°C° 0 mm 5 mps 735 mmHg 95%
23:00 -3°C° 0 mm 4 mps 735 mmHg 95%

Day after tomorrow, 29 January, Friday

Time Temperature Precipitation Wind Pressure Humidity
00:00 -3°C° 0 mm 4 mps 735 mmHg 95%
01:00 -3°C° 0.5 mm 4 mps 734 mmHg 96%
02:00 -3°C° 0.5 mm 4 mps 734 mmHg 97%
03:00 -2°C° 0.5 mm 5 mps 734 mmHg 97%
04:00 -2°C° 0.7 mm 5 mps 733 mmHg 97%
05:00 -2°C° 0.7 mm 5 mps 733 mmHg 98%
06:00 -2°C° 0.7 mm 5 mps 733 mmHg 98%
07:00 -1°C° 0.1 mm 4 mps 732 mmHg 98%
08:00 -1°C° 0.1 mm 4 mps 732 mmHg 99%
09:00 -1°C° 0.1 mm 4 mps 732 mmHg 99%
10:00 -1°C° 0 mm 4 mps 732 mmHg 96%
11:00 -2°C° 0 mm 5 mps 732 mmHg 93%
12:00 -2°C° 0 mm 5 mps 732 mmHg 90%
13:00 -2°C° 0 mm 5 mps 732 mmHg 89%
14:00 -3°C° 0 mm 6 mps 731 mmHg 88%
15:00 -4°C° 0 mm 6 mps 731 mmHg 87%
16:00 -4°C° 0 mm 6 mps 730 mmHg 89%
17:00 -4°C° 0 mm 6 mps 730 mmHg 90%
18:00 -4°C° 0 mm 6 mps 729 mmHg 91%
19:00 -4°C° 0.3 mm 6 mps 729 mmHg 92%
20:00 -4°C° 0.3 mm 6 mps 728 mmHg 93%
21:00 -4°C° 0.3 mm 6 mps 728 mmHg 93%
22:00 -5°C° 0.2 mm 6 mps 728 mmHg 93%
23:00 -6°C° 0.2 mm 7 mps 727 mmHg 93%

30 January, Saturday

Time Temperature Precipitation Wind Pressure Humidity
00:00 -6°C° 0.2 mm 7 mps 727 mmHg 93%
01:00 -5°C° 0.2 mm 6 mps 727 mmHg 93%
02:00 -6°C° 0.2 mm 5 mps 727 mmHg 92%
03:00 -7°C° 0.2 mm 4 mps 727 mmHg 91%
04:00 -7°C° 0 mm 4 mps 727 mmHg 91%
05:00 -8°C° 0 mm 5 mps 727 mmHg 91%
06:00 -10°C° 0 mm 5 mps 727 mmHg 91%
07:00 -10°C° 0 mm 4 mps 728 mmHg 92%
08:00 -10°C° 0 mm 4 mps 728 mmHg 92%
09:00 -11°C° 0 mm 4 mps 729 mmHg 93%
10:00 -10°C° 0 mm 4 mps 729 mmHg 92%
11:00 -9°C° 0 mm 4 mps 730 mmHg 91%
12:00 -8°C° 0 mm 5 mps 730 mmHg 90%
13:00 -8°C° 0 mm 4 mps 730 mmHg 91%
14:00 -8°C° 0 mm 4 mps 730 mmHg 91%
15:00 -8°C° 0 mm 4 mps 731 mmHg 91%
16:00 -8°C° 0 mm 4 mps 730 mmHg 91%
17:00 -8°C° 0 mm 4 mps 730 mmHg 92%
18:00 -8°C° 0 mm 4 mps 730 mmHg 93%
19:00 -8°C° 0.2 mm 4 mps 730 mmHg 94%
20:00 -7°C° 0.2 mm 4 mps 729 mmHg 95%
21:00 -6°C° 0.2 mm 5 mps 728 mmHg 96%
22:00 -6°C° 0.9 mm 6 mps 727 mmHg 96%
23:00 -5°C° 0.9 mm 6 mps 726 mmHg 97%

31 January, Sunday

Time Temperature Precipitation Wind Pressure Humidity
00:00 -4°C° 0.9 mm 7 mps 725 mmHg 97%
01:00 -4°C° 1.1 mm 8 mps 724 mmHg 97%
02:00 -2°C° 1.1 mm 8 mps 723 mmHg 98%
03:00 -3°C° 1.1 mm 9 mps 722 mmHg 98%
04:00 -3°C° 0.6 mm 9 mps 722 mmHg 98%
05:00 -2°C° 0.6 mm 8 mps 721 mmHg 98%
06:00 -2°C° 0.6 mm 8 mps 721 mmHg 98%
07:00 -4°C° 0.1 mm 8 mps 721 mmHg 94%
08:00 -5°C° 0.1 mm 8 mps 722 mmHg 91%
09:00 -6°C° 0.1 mm 9 mps 723 mmHg 87%
10:00 -8°C° 0 mm 9 mps 724 mmHg 87%
11:00 -7°C° 0 mm 8 mps 725 mmHg 87%
12:00 -8°C° 0 mm 8 mps 726 mmHg 87%
13:00 -8°C° 0 mm 8 mps 727 mmHg 87%
14:00 -8°C° 0 mm 8 mps 728 mmHg 86%
15:00 -8°C° 0 mm 8 mps 728 mmHg 86%
16:00 -8°C° 0 mm 8 mps 729 mmHg 87%
17:00 -8°C° 0 mm 8 mps 730 mmHg 87%
18:00 -10°C° 0 mm 8 mps 730 mmHg 88%
19:00 -10°C° 0 mm 8 mps 731 mmHg 88%
20:00 -10°C° 0 mm 8 mps 731 mmHg 87%
21:00 -10°C° 0 mm 8 mps 732 mmHg 87%
22:00 -11°C° 0 mm 8 mps 732 mmHg 87%
23:00 -11°C° 0 mm 8 mps 733 mmHg 88%

1 February, Monday

Time Temperature Precipitation Wind Pressure Humidity
00:00 -11°C° 0 mm 7 mps 734 mmHg 88%
01:00 -11°C° 0 mm 7 mps 734 mmHg 88%
02:00 -11°C° 0 mm 7 mps 735 mmHg 89%
03:00 -10°C° 0 mm 6 mps 736 mmHg 90%
04:00 -10°C° 0 mm 6 mps 736 mmHg 90%
05:00 -11°C° 0 mm 6 mps 736 mmHg 90%
06:00 -11°C° 0 mm 6 mps 737 mmHg 90%
07:00 -11°C° 0 mm 5 mps 737 mmHg 91%
08:00 -12°C° 0 mm 5 mps 738 mmHg 91%
09:00 -12°C° 0 mm 5 mps 739 mmHg 92%
10:00 -11°C° 0 mm 4 mps 739 mmHg 92%
11:00 -10°C° 0 mm 4 mps 739 mmHg 92%
12:00 -10°C° 0 mm 4 mps 739 mmHg 92%
13:00 -10°C° 0 mm 4 mps 739 mmHg 92%
14:00 -9°C° 0 mm 3 mps 739 mmHg 93%
15:00 -8°C° 0 mm 3 mps 739 mmHg 93%
16:00 -8°C° 0 mm 2 mps 739 mmHg 94%
17:00 -8°C° 0 mm 2 mps 739 mmHg 94%
18:00 -9°C° 0 mm 2 mps 739 mmHg 95%
19:00 -9°C° 0 mm 2 mps 739 mmHg 94%
20:00 -8°C° 0 mm 1 mps 738 mmHg 94%
21:00 -8°C° 0 mm 1 mps 738 mmHg 93%
22:00 -9°C° 0 mm 2 mps 738 mmHg 94%
23:00 -10°C° 0 mm 2 mps 738 mmHg 94%
Show more